Effective Sunday, March 17, 2024, the National Weather Service National Data Buoy Center will discontinue its Dial-A-Buoy Interactive Voice Response system. For more information, see Service Change Notice 24-06 (PDF).

Station JNGA2 - Juneau ANG Dock, AK Image indicating link to RSS feed of recent meteorological observations for station JNGA2


Conditions at JNGA2 as of
(1:13 am AKST)
1013 GMT on 02/28/2024:
     

Click on the graph icon in the table below to see a time series plot of the last five days of that observation.

5-day plot - Wind Direction Wind Direction (WDIR):ENE ( 70 deg true )
5-day plot - Wind Speed Wind Speed (WSPD): 2 kts
5-day plot - Wind Gust Wind Gust (GST): 3 kts
5-day plot - Atmospheric Pressure Atmospheric Pressure (PRES):29.19 in
5-day plot - Air Temperature Air Temperature (ATMP): 25.0 °F
5-day plot - Dew Point Dew Point (DEWP): 22.5 °F
5-day plot - Wind Speed at 10 Meters Wind Speed at 10 meters (WSPD10M): 2 kts
5-day plot - Wind Speed at 20 Meters Wind Speed at 20 meters (WSPD20M): 2 kts
5-day plot -  Wind Speed, Wind Gust and Atmospheric Pressure Combined plot of Wind Speed, Gust, and Air Pressure
Previous observations
TIME
(AKST)
5-day plot - Wind Direction
WDIR
 
5-day plot - Wind Speed
WSPD
kts
5-day plot - Wind Gust
GST
kts
5-day plot - Wave Height
WVHT
ft
5-day plot - Dominant Wave Period
DPD
sec
5-day plot - Average Wave Period
APD
sec
5-day plot - Mean Wave Direction
MWD
 
5-day plot - Atmospheric Pressure
PRES
in
5-day plot - Pressure Tendency
PTDY
in
5-day plot - Air Temperature
ATMP
°F
5-day plot - Water Temperature
WTMP
°F
5-day plot - Dew Point
DEWP
°F
5-day plot - Salinity
SAL
psu
5-day plot - Visibility
VIS
nmi
5-day plot - Tide (above MLLW)
TIDE
ft
2024-02-28 01:03 am NE 2 3----29.19- 25.2- 22.1---
2024-02-28 12:53 am NE 2 3----29.19- 25.2- 22.1---
2024-02-28 12:33 am NE 2 3----29.19- 25.0- 21.9---
2024-02-28 12:23 amENE 2 4----29.20- 25.0- 21.4---
2024-02-28 12:14 amENE 2 4----29.20- 25.0- 21.9---
2024-02-28 12:03 amENE 2 3----29.20- 25.0- 21.7---
2024-02-27 11:53 pm NE 2 3----29.20- 25.0- 21.7---
2024-02-27 11:43 pm E 1 2----29.20- 25.2- 21.7---
2024-02-27 11:33 pmENE 2 3----29.20- 24.8- 21.7---
2024-02-27 11:23 pmENE 1 2----29.20- 24.8- 22.1---
2024-02-27 11:13 pmENE 1 2----29.20- 24.6- 22.1---
2024-02-27 11:03 pm E 1 2----29.20- 24.6- 21.7---
2024-02-27 10:53 pmENE 2 5----29.20- 24.4- 21.4---
2024-02-27 10:43 pm NE 2 3----29.20- 24.3- 21.4---
2024-02-27 10:33 pm NE 2 3----29.20- 24.1- 21.6---
2024-02-27 10:23 pmENE 1 3----29.20- 24.4- 21.7---
2024-02-27 10:13 pm- 0 2----29.20- 24.6- 21.7---
2024-02-27 10:03 pm E 2 4----29.20- 24.6- 21.4---
2024-02-27 09:53 pmENE 2 3----29.20- 24.8- 21.4---
2024-02-27 09:43 pm E 2 4----29.20- 24.8- 21.2---
2024-02-27 09:33 pmENE 3 4----29.20- 24.8- 20.7---
2024-02-27 09:23 pmENE 3 5----29.20- 24.6- 20.8---
2024-02-27 09:13 pmENE 2 4----29.20- 24.6- 20.8---
2024-02-27 09:03 pmENE 3 6----29.20- 24.8- 20.1---
2024-02-27 08:53 pmENE 3 4----29.20- 24.6- 20.7---
2024-02-27 08:43 pmENE 4 5----29.20- 24.6- 19.8---
2024-02-27 08:33 pmENE 3 5----29.20- 24.4- 19.6---
2024-02-27 08:23 pm NE 3 4----29.20- 24.4- 19.9---
2024-02-27 08:13 pmENE 3 4----29.20- 24.4- 19.8---
2024-02-27 08:03 pmENE 3 4----29.21- 24.4- 19.4---
2024-02-27 07:53 pm NE 3 5----29.21- 24.4- 20.1---
2024-02-27 07:43 pmENE 1 3----29.21- 24.6- 19.9---
2024-02-27 07:33 pm- 0 2----29.21- 24.3- 20.5---
2024-02-27 07:23 pm NE 3 4----29.21- 24.1- 19.8---
2024-02-27 07:13 pmENE 3 4----29.21- 23.9- 19.8---
2024-02-27 07:03 pmENE 3 5----29.21- 23.9- 19.8---
2024-02-27 06:53 pmENE 2 3----29.22- 23.9- 20.3---
2024-02-27 06:43 pmENE 2 4----29.22- 23.9- 20.3---
2024-02-27 06:33 pm E 1 3----29.23- 24.3- 20.3---
2024-02-27 06:23 pm E 2 4----29.23- 24.1- 20.3---
2024-02-27 06:13 pmNNE 2 3----29.23- 24.8- 19.9---
2024-02-27 06:08 pm SW 2 4----29.23- 24.8- 19.6---
2024-02-27 06:03 pm SW 2 4----29.23- 24.8- 19.6---
2024-02-27 05:43 pmWSW 3 5----29.23- 25.2- 19.2---
2024-02-27 05:33 pmWSW 1 4----29.23- 25.0- 18.5---
2024-02-27 05:23 pm W 3 7----29.24- 25.0- 18.9---
2024-02-27 05:13 pm W 4 7----29.24- 25.0- 18.9---
2024-02-27 05:03 pmWNW 4 8----29.24- 25.2- 18.5---
2024-02-27 04:53 pm NW 4 9----29.24- 25.0- 19.0---
2024-02-27 04:43 pmNNW 4 8----29.25- 25.0- 18.3---
2024-02-27 04:33 pmWNW 3 6----29.25- 25.0- 18.0---
2024-02-27 04:23 pm W 3 8----29.25- 24.8- 17.6---
2024-02-27 04:13 pm W 4 6----29.26- 24.8- 17.8---
2024-02-27 04:03 pmWNW 4 7----29.26- 24.8- 17.8---
2024-02-27 03:53 pm NW 4 7----29.27- 24.6- 18.0---
2024-02-27 03:43 pmNNW 2 5----29.27- 24.4- 18.0---
2024-02-27 03:33 pm N 4 9----29.27- 24.1- 17.6---
2024-02-27 03:23 pmNNW 5 11----29.28- 23.9- 17.8---
2024-02-27 03:13 pm N 4 7----29.28- 23.7- 18.1---
2024-02-27 02:53 pm N 4 9----29.29- 23.7- 17.6---
2024-02-27 02:43 pm N 5 9----29.30- 23.7- 17.8---
2024-02-27 02:33 pm N 4 9----29.30- 23.7- 18.0---
2024-02-27 02:23 pm N 5 12----29.31- 23.5- 18.1---
2024-02-27 02:13 pm N 5 8----29.31- 23.4- 18.1---
2024-02-27 02:03 pm N 6 10----29.31- 23.5- 17.6---
2024-02-27 01:53 pm N 5 9----29.32- 24.1- 17.6---
2024-02-27 01:43 pm N 5 8----29.32- 24.1- 17.6---
2024-02-27 01:33 pmNNW 6 10----29.32- 24.1- 16.9---
2024-02-27 01:23 pm NW 6 13----29.32- 24.3- 16.5---
2024-02-27 01:13 pm NW 4 8----29.33- 24.6- 17.8---
2024-02-27 01:03 pmNNW 3 8----29.34- 24.4- 17.2---
2024-02-27 12:53 pm N 4 9----29.34- 23.7- 16.5---
2024-02-27 12:43 pm NW 5 9----29.35- 23.7- 17.4---
2024-02-27 12:33 pmWNW 4 9----29.35- 23.4- 18.3---
2024-02-27 12:23 pm NW 3 4----29.36- 23.0- 18.3---
2024-02-27 12:13 pm NW 2 5----29.36- 22.6- 18.1---
2024-02-27 12:03 pmNNW 2 5----29.37- 22.5- 18.5---
2024-02-27 11:53 am NE 1 2----29.38- 22.5- 18.7---
2024-02-27 11:43 am N 3 4----29.38- 21.9- 18.5---
2024-02-27 11:33 am W 2 5----29.39- 22.3- 18.7---
2024-02-27 11:23 amENE 1 3----29.39- 22.1- 18.5---
2024-02-27 11:13 am E 1 3----29.40- 21.7- 18.1---
2024-02-27 11:03 am W 1 4----29.40- 21.6- 18.1---
2024-02-27 10:53 am NE 1 3----29.40- 21.0- 18.0---
2024-02-27 10:43 am N 2 5----29.40- 20.5- 17.4---
2024-02-27 10:33 amNNE 3 4----29.41- 19.9- 17.1---
2024-02-27 10:23 am N 2 4----29.41- 19.8- 17.6---
2024-02-27 10:13 amWNW 2 4----29.41- 19.6- 17.4---
2024-02-27 10:03 amWNW 2 4----29.42- 19.6- 17.4---
2024-02-27 09:53 amNNW 1 2----29.43- 19.2- 17.2---
2024-02-27 09:43 am- 0 3----29.44- 19.2- 17.2---
2024-02-27 09:33 am- 0 3----29.45- 18.9- 16.9---
2024-02-27 09:23 am S 1 3----29.46- 18.3- 16.3---
2024-02-27 09:13 am S 2 4----29.46- 18.0- 15.8---
2024-02-27 09:03 am E 3 6----29.47- 17.8- 15.8---
2024-02-27 08:53 amESE 4 7----29.48- 17.6- 15.4---
2024-02-27 08:43 amESE 3 6----29.49- 18.0- 16.2---
2024-02-27 08:33 am SE 3 5----29.49- 18.0- 16.0---
2024-02-27 08:27 amESE 3 6----29.50- 17.6- 15.6---
2024-02-27 08:18 amESE 4 6----29.50- 17.6- 15.6---
2024-02-27 08:08 am SE 3 5----29.50- 17.8- 15.6---
2024-02-27 07:58 amESE 3 5----29.51- 17.8- 15.3---
2024-02-27 07:49 amENE 3 5----29.52- 18.0- 15.3---
2024-02-27 07:39 amENE 3 5----29.52- 18.1- 15.1---
2024-02-27 07:27 am N 2 5----29.53- 18.5- 15.1---
2024-02-27 07:18 am W 2 6----29.54- 18.5- 14.4---
2024-02-27 07:08 amWSW 3 6----29.54- 18.5- 13.5---
2024-02-27 06:55 amWSW 4 12----29.55- 18.5- 12.9---
2024-02-27 06:43 amWSW 4 11----29.56- 18.7- 12.6---
2024-02-27 06:33 amWNW 5 9----29.57- 18.5- 12.0---
2024-02-27 06:23 am NW 5 8----29.58- 18.7- 12.0---
2024-02-27 06:13 amWNW 5 8----29.59- 19.0- 12.4---
2024-02-27 06:03 am W 4 10----29.60- 19.4- 12.4---
2024-02-27 05:53 am W 4 8----29.62- 19.4- 12.9---
2024-02-27 05:43 amNNW 4 6----29.62- 19.2- 14.2---
2024-02-27 05:33 am N 4 6----29.64- 19.6- 13.8---
2024-02-27 05:23 amSSW 3 6----29.65- 19.4- 12.9---
2024-02-27 05:13 am SW 4 9----29.65- 19.2- 13.6---
2024-02-27 05:03 amWSW 4 9----29.66- 18.9- 14.4---
2024-02-27 04:53 amWSW 4 10----29.67- 19.2- 14.7---
2024-02-27 04:43 am NE 4 9----29.68- 19.9- 14.9---
2024-02-27 04:33 am W 2 6----29.69- 21.0- 14.5---
2024-02-27 04:23 amSSE 5 12----29.69- 21.6- 13.5---
2024-02-27 04:13 am SE 7 17----29.70- 21.9- 12.7---
2024-02-27 04:03 am SE 5 10----29.71- 22.3- 12.2---
2024-02-27 03:53 am SE 4 11----29.72- 22.3- 11.7---
2024-02-27 03:43 amSSE 4 11----29.72- 22.5- 6.3---
2024-02-27 03:33 am NW 4 6----29.72- 22.1- 1.2---
2024-02-27 03:23 amNNW 3 5----29.73- 22.1- -0.0---
2024-02-27 03:13 am SW 3 8----29.74- 21.7- -0.2---
2024-02-27 03:03 amSSW 3 7----29.75- 21.6- -0.4---
2024-02-27 02:53 amWNW 4 8----29.76- 21.6- 0.3---
2024-02-27 02:43 amNNW 3 5----29.76- 21.6- -0.4---
2024-02-27 02:33 am NW 5 9----29.77- 21.6- -0.2---
2024-02-27 02:23 am W 4 7----29.78- 21.6- 0.5---
2024-02-27 02:14 amWNW 4 8----29.79- 21.2- -0.0---
2024-02-27 02:04 am W 4 7----29.79- 21.0- 0.3---
2024-02-27 01:53 amWSW 3 6----29.79- 21.2- 0.3---
2024-02-27 01:44 am SW 2 4----29.80- 21.0- -0.8---
2024-02-27 01:34 am SW 3 6----29.82- 20.8- -1.3---
2024-02-27 01:24 am SW 3 7----29.83- 20.8- -2.0---
2024-02-27 01:15 amSSW 3 7----29.84- 21.0- -1.1---
2024-02-27 01:05 am W 5 11----29.84- 21.0- 0.5---
2024-02-27 12:54 amWSW 5 8----29.84- 20.8- -0.8---